Location: Caltech
(34.1382°N, 118.1253°W)
Time: 03:21:27
(UTC-07:00)

Cosmos 1833 - Visible Passes

Search period start: 21 October 2014 00:00
Search period end: 31 October 2014 00:00
Orbit: 841 x 858 km, 70.9° (Epoch: 19 October)

Date Brightness Start Highest point End Pass type
(mag) Time Alt. Az. Time Alt. Az. Time Alt. Az.
21 Oct 6.1 04:30:23 19° N 04:30:23 19° N 04:31:58 10° N visible
22 Oct 6.5 04:18:32 14° N 04:18:32 14° N 04:19:19 10° N visible
23 Oct 6.8 04:06:37 10° N 04:06:37 10° N 04:06:39 10° N visible
